Location: Rimouski
(48.4330°N, 68.5170°W)
Time: 18:19:41
(UTC-05:00)

Daily predictions for brighter satellites

Satellite Brightness Start Highest point End
(mag) Time Altitude Azimuth Time Altitude Azimuth Time Altitude Azimuth
BREEZE-M DEB (TANK) 4.4 16:36:15 10° SW 16:39:45 59° SE 16:53:51 10° ENE
SMAP 3.0 16:46:39 10° SSE 16:51:18 79° ENE 16:55:59 10° NNW
Cosmos 2366 rocket 4.1 16:50:54 10° N 16:57:02 54° ENE 17:03:03 10° SSE
SL-16 R/B 4.2 16:55:42 10° W 17:00:00 21° NW 17:04:19 10° N
Cosmos 1766 Rocket 4.2 16:56:47 10° SSE 17:00:40 34° E 17:04:35 10° NNE
KORONAS-FOTON 4.3 16:59:12 10° SSW 17:02:57 64° W 17:06:44 10° N
Cosmos 2058 4.5 17:02:44 10° SE 17:05:25 17° E 17:08:08 10° NE
COSMOS 2406 4.4 17:01:18 10° SSE 17:05:43 24° ESE 17:10:08 10° NE
Cosmos 1151 Rocket 4.2 17:04:12 10° NNE 17:07:43 23° ENE 17:11:12 10° ESE
Cosmos 1943 3.7 17:03:05 10° SW 17:08:40 63° WNW 17:14:16 10° NNE
TSX-5 3.9 17:05:37 10° S 17:08:41 41° ESE 17:12:15 10° NE
AQUARIUS 4.5 17:04:19 10° S 17:08:48 73° WSW 17:13:20 10° NNW
Cosmos 1455 3.3 17:06:27 10° NNE 17:09:35 23° ENE 17:12:41 10° SE
SKYMED 2 4.3 17:06:45 10° NNE 17:10:42 33° E 17:14:37 10° SSE
H-2A R/B 4.1 17:08:55 10° ESE 17:11:41 19° ENE 17:14:28 10° NNE
Cosmos 1346 Rocket 3.1 17:08:28 10° N 17:12:12 40° ENE 17:15:53 10° SE
USA 215 3.7 17:07:04 10° NE 17:13:22 53° NNW 17:19:40 10° W
Cosmos 1697 Rocket 4.3 17:11:17 10° N 17:14:41 16° NE 17:17:18 12° ENE
Okean 3 Rocket 3.6 17:10:35 10° S 17:15:07 85° E 17:19:39 10° N
CZ-4 R/B 1.7 17:13:44 10° S 17:17:58 80° WSW 17:22:15 10° NNW
Cosmos 2221 3.8 17:15:27 10° NNW 17:19:39 45° W 17:23:49 10° SSW
Cosmos 909 Rocket 4.2 17:12:41 10° NW 17:19:47 59° NE 17:26:00 10° SE
YAOGAN 1 2.5 17:15:45 10° SSE 17:20:04 78° ENE 17:24:25 10° N
Cosmos 44 Rocket 3.5 17:17:54 10° SSW 17:22:25 49° ESE 17:26:33 13° NE
Cosmos 1626 2.5 17:18:58 10° SSE 17:22:28 41° E 17:26:00 10° NNE
RESURS DK-1 3.9 17:19:51 10° N 17:22:47 18° NE 17:24:16 15° ENE
NOAA 12 4.2 17:18:13 10° SE 17:23:17 52° ENE 17:28:25 10° N
Ariane Rocket 3.7 17:18:24 10° S 17:23:23 61° WSW 17:28:27 10° NNW
Cosmos 1315 Rocket 2.7 17:19:58 10° S 17:23:51 68° E 17:27:46 10° NNE
Cosmos 1656 Rocket 4.1 17:24:14 10° NNW 17:29:40 66° WSW 17:35:09 10° SSE
ERBS 2.4 17:28:33 10° NW 17:31:54 53° NNE 17:34:13 18° ESE
Cosmos 2151 3.7 17:31:20 10° SSE 17:35:06 31° E 17:38:54 10° NNE
Landsat 4 4.0 17:32:15 10° NNE 17:35:51 43° E 17:39:25 10° S
EO 1 Del DPAF 3.9 17:33:01 11° NNE 17:36:20 34° E 17:39:50 10° SSE
ALOS 2.2 17:34:57 10° SSE 17:39:37 80° ENE 17:44:18 10° NNW
MTI 3.9 17:38:23 12° NNE 17:41:15 51° E 17:44:22 10° S
Cosmos 332 Rocket 4.4 17:38:58 10° S 17:43:27 37° ESE 17:46:39 17° NE
Cosmos 1328 4.0 17:41:02 10° SSW 17:45:02 76° W 17:49:06 10° N
ERS-2 2.3 17:41:43 10° SE 17:45:17 50° ENE 17:48:53 10° N
CZ-4C R/B 3.9 17:44:19 10° SE 17:46:06 13° ESE 17:46:06 13° ESE
Cosmos 1515 Rocket 3.5 17:43:23 10° N 17:47:42 58° ENE 17:51:58 10° SSE
Cosmos 1408 Rocket 3.5 17:45:19 10° S 17:49:37 88° W 17:53:58 10° N
Cosmos 1340 3.1 17:50:32 10° N 17:54:04 36° ENE 17:56:08 20° SE
SPOT 3 Rocket 3.5 17:53:04 10° SSE 17:58:14 89° WSW 18:03:27 10° NNW
COSMO-SKYMED 1 2.6 17:54:32 10° NNE 17:58:54 83° WNW 18:03:15 10° SSW
Geosat 4.3 17:54:06 10° NNE 17:59:07 68° WNW 18:04:06 10° SW
CZ-2C R/B 4.3 17:56:37 10° N 18:01:16 60° WNW 18:05:49 10° SSW
Cosmos 1703 3.1 17:57:44 10° S 18:01:43 78° E 18:05:43 10° NNE
Lacrosse 5 3.5 17:58:43 10° SSE 18:01:41 17° SE 18:01:41 17° SE
Cosmos 1500 Rocket 3.7 17:59:15 10° S 18:03:35 52° E 18:07:15 14° NNE
SL-16 R/B 4.2 18:02:36 10° N 18:04:16 11° NNE 18:04:21 11° NNE
FENGYUN 3A 4.0 18:01:14 10° S 18:06:33 66° WSW 18:11:55 10° NNW
BREEZE-M DEB (TANK) 1.7 18:02:44 10° WSW 18:06:34 61° SSE 18:06:52 55° ESE
Resurs 01 Rocket 3.7 18:09:27 13° NNE 18:09:27 13° NNE 18:10:04 10° NNE
USA 81 4.0 18:05:17 10° S 18:10:29 64° E 18:15:43 10° NNE
Cosmos 1980 Rocket 3.4 18:10:01 10° N 18:14:11 23° NE 18:14:11 23° NE
NOSS 3 (A) 4.5 18:11:49 10° SW 18:14:39 85° NW 18:14:50 76° NNE
Cosmos 2208 Rocket 4.3 18:09:44 10° S 18:14:46 46° ESE 18:16:34 34° ENE
Cosmos 1898 Rocket 3.5 18:10:05 10° NNW 18:15:22 58° ENE 18:18:55 20° SE
Cosmos 1328 Rocket 4.4 18:12:33 10° NNW 18:16:48 51° W 18:21:00 10° S
Cosmos 1743 Rocket 3.5 18:14:35 10° S 18:18:57 87° W 18:23:19 10° N
Cosmos 44 3.8 18:16:30 10° WSW 18:20:44 48° NW 18:23:09 24° NNE
Cosmos 2228 Rocket 3.6 18:16:45 10° NNW 18:21:17 62° W 18:25:49 10° S
ATLAS 5 CENTAUR R/B 3.7 18:17:51 10° NNW 18:21:55 21° NNE 18:22:43 20° NNE
SJ-6B 3.9 18:23:37 29° N 18:23:37 29° N 18:25:38 10° N
Cosmos 990 Rocket 4.1 18:21:56 10° NNW 18:27:05 51° ENE 18:27:54 46° E
Cosmos 371 Rocket 3.1 18:22:56 10° SSW 18:27:45 81° ESE 18:29:49 35° NNE
Cosmos 2082 Rocket 4.3 18:24:35 10° SSE 18:24:47 11° SSE 18:24:47 11° SSE
Meteor 2-15 Rocket 4.3 18:26:20 10° S 18:32:24 68° E 18:38:28 10° NNE
Cosmos 2278 3.6 18:30:04 10° NNW 18:35:45 62° ENE 18:37:11 47° ESE
Envisat 3.0 18:36:31 55° ENE 18:36:37 55° ENE 18:41:35 10° N
Cosmos 2058 3.8 18:37:52 10° SSW 18:41:57 50° WNW 18:45:42 12° N
Cosmos 1455 4.1 18:41:53 10° NNW 18:45:18 30° W 18:48:39 10° SSW
Cosmos 1151 Rocket 4.4 18:41:19 10° NNW 18:45:27 40° W 18:49:33 10° SSW
H-2A R/B 4.0 18:42:00 10° S 18:45:39 42° W 18:49:23 10° NNW
Cosmos 1570 Rocket 3.9 18:41:21 10° SSW 18:46:41 89° WNW 18:48:25 44° NNE
Cosmos 1821 Rocket 4.2 18:41:39 10° NNW 18:47:47 68° W 18:53:56 10° S
GEOS 3 Rocket 3.6 18:47:06 48° SE 18:48:40 89° SW 18:54:07 10° NW
COSMOS 2406 3.5 18:43:52 10° SW 18:49:33 64° WNW 18:52:44 27° NNE
Cosmos 2369 3.6 18:45:14 10° NNW 18:51:01 84° ENE 18:52:29 52° SE
Cosmos 1656 3.4 18:48:48 10° NNW 18:54:18 79° ENE 18:54:46 72° ESE
USA 215 3.9 18:54:04 36° NE 18:55:43 42° N 19:01:48 10° WNW
Cosmos 1697 Rocket 2.8 18:54:16 10° NNW 18:59:05 56° NNE 18:59:05 56° NNE
RESURS DK-1 3.2 18:57:08 10° NNW 19:00:14 47° NW 19:00:14 47° NW
Cosmos 1937 Rocket 3.5 19:00:36 10° NNW 19:05:53 78° WSW 19:06:18 72° SSW
Cosmos 2298 Rocket 4.0 19:03:30 10° NNW 19:08:44 81° W 19:08:44 81° W
Meteor 2-10 Rocket 3.6 19:06:27 10° NNW 19:11:30 69° W 19:11:38 68° WSW
Thor Agena Rocket 3.6 19:12:21 76° WSW 19:12:21 76° WSW 19:17:14 10° SSW
Cosmos 2322 Rocket 4.2 19:22:04 10° NNW 19:23:40 17° N 19:23:40 17° N
Cosmos 1605 Rocket 4.2 19:24:24 10° NNW 19:30:28 64° W 19:32:52 37° SSW
CZ-4C R/B 3.5 19:28:54 10° SSW 19:31:21 29° SSW 19:31:21 29° SSW
Resurs 01 Rocket 4.4 19:47:01 11° NNW 19:47:01 11° NNW 19:47:13 10° NNW
Lacrosse 5 3.8 19:39:09 10° SW 19:40:56 22° SW 19:40:56 22° SW
SL-16 R/B 4.3 19:44:56 10° NNW 19:46:13 16° N 19:46:13 16° N
Cosmos 1980 Rocket 3.8 19:53:29 10° NNW 19:55:59 27° NNW 19:55:59 27° NNW
Cosmos 2344 4.4 19:54:16 10° NW 20:03:59 66° NE 20:04:11 66° NE
ATLAS 5 CENTAUR R/B 4.2 20:02:19 10° NW 20:04:16 22° NNW 20:04:16 22° NNW
